Wind_Speed
48 47 46 44 43 42 40 38 37 36 36 35 35 36 37 37 38 38 38 37 37 37 36 36 36 35 35 34 33 33 33 34 35 35 35 35 34 34 33 32 32 33 33 33 32 32 31 30 30 30 29 28 28 27 26 26 26 27 27 27 27 27 27 27 27 27 27 27 27 28 30 31 31 30 28 28 27 28 28 28 29 29 28 27 24 21
49 48 47 46 45 43 42 40 38 37 36 36 35 36 36 37 38 39 39 39 39 38 38 38 37 37 36 36 35 34 34 35 35 36 36 36 36 35 35 34 34 34 34 34 33 33 32 31 31 30 29 28 28 27 26 26 27 27 27 27 27 27 27 27 28 28 28 27 28 29 31 32 32 31 29 28 28 28 28 29 29 29 29 27 25 22
50 50 49 48 47 45 44 42 40 38 37 37 36 36 36 37 38 39 40 40 40 40 39 39 39 38 38 37 36 36 35 35 36 36 37 37 37 36 36 35 35 35 35 35 34 33 33 32 31 30 30 29 28 28 27 27 27 27 27 27 27 28 28 28 28 28 28 28 29 30 32 33 32 31 29 28 28 28 28 29 29 29 29 28 26 23
52 51 51 50 49 48 46 44 42 41 39 39 38 37 37 37 38 39 40 41 41 41 41 40 40 40 39 39 38 37 36 36 36 37 37 37 37 37 36 36 36 36 36 35 34 34 33 32 31 30 30 29 28 28 28 28 28 27 28 28 28 28 28 28 28 28 28 28 29 30 31 31 30 29 28 27 27 28 28 29 29 29 28 27 26 24
53 52 52 51 51 50 48 46 44 43 42 41 40 39 38 38 38 39 40 41 41 42 42 41 41 41 41 40 39 39 38 37 37 37 37 37 37 37 37 37 36 36 36 35 35 34 33 32 31 31 30 29 29 29 29 28 28 28 28 28 28 28 28 28 28 28 28 28 28 29 29 29 29 28 27 27 27 28 28 29 28 28 27 27 26 24
53 53 53 53 52 52 50 49 47 45 44 43 42 41 40 40 39 39 40 41 41 42 42 42 42 42 42 42 41 40 39 38 38 37 37 37 37 37 37 37 37 37 36 36 35 34 33 32 31 31 30 29 29 29 29 29 29 29 29 29 29 29 28 28 28 27 27 28 28 28 28 28 27 27 26 27 27 28 29 29 28 27 27 27 26 25
55 54 54 53 53 53 52 51 49 48 46 45 44 43 42 41 41 40 40 41 41 42 42 42 42 43 43 43 42 42 41 40 39 39 38 37 37 38 38 38 38 38 37 36 35 34 33 32 32 31 31 30 30 30 30 30 30 29 29 29 29 29 28 28 27 27 27 27 27 27 27 27 27 26 26 27 28 29 29 29 29 28 28 28 27 26
55 55 55 55 54 54 53 52 51 49 48 47 46 45 44 43 42 42 41 41 41 42 42 42 43 43 43 44 44 43 43 42 41 40 39 38 37 38 39 39 39 39 38 37 36 35 33 33 32 32 31 31 31 31 31 31 31 30 30 30 29 28 28 28 27 27 27 27 27 27 27 27 27 27 27 28 29 30 30 30 29 29 29 28 27 26
56 56 56 56 55 55 55 54 53 51 50 49 48 47 46 45 44 44 43 42 42 42 42 42 43 43 43 44 44 44 44 43 42 41 39 38 38 38 39 40 40 40 39 38 37 35 34 33 33 32 32 32 32 32 32 32 32 31 31 30 29 28 28 27 27 27 27 27 27 27 27 27 27 27 27 28 29 30 31 31 31 30 30 29 28 27
57 57 57 57 56 56 56 55 54 53 51 50 49 48 48 47 46 45 44 44 43 43 42 42 43 43 43 44 44 45 45 45 44 43 41 39 39 39 40 41 41 41 40 39 38 36 35 34 33 33 33 33 33 33 33 33 33 32 31 30 29 28 28 27 27 27 27 28 28 28 27 27 27 28 28 29 30 31 31 32 31 31 31 30 29 28
58 58 58 58 57 57 57 57 56 54 53 52 51 50 49 48 48 47 46 45 44 43 43 43 43 43 43 44 44 45 45 46 46 45 43 42 41 42 42 43 43 42 41 40 39 37 36 35 35 35 35 35 34 34 34 34 33 33 32 31 30 29 28 28 28 28 28 28 28 28 28 28 28 28 29 30 30 31 32 32 32 32 31 30 29 28
59 59 59 59 58 58 58 58 57 56 55 53 52 52 51 49 48 48 47 47 46 44 43 43 43 43 43 44 44 45 46 47 47 47 46 46 45 45 45 45 45 44 43 42 40 39 37 36 36 36 36 36 35 35 35 34 34 33 32 32 31 30 29 28 28 28 28 28 28 28 28 28 29 29 30 30 31 31 31 31 31 31 31 30 29 28
60 60 60 60 60 60 59 59 59 58 57 55 54 53 52 50 49 48 48 48 47 46 45 44 44 44 44 44 45 45 46 47 48 49 49 49 49 48 48 48 48 47 46 45 43 41 40 39 38 38 37 37 36 36 35 35 34 34 33 32 32 31 30 29 29 29 29 29 29 29 29 29 29 30 30 30 31 31 31 31 31 30 30 29 28 27
62 62 62 62 62 61 61 61 61 60 59 58 56 55 53 52 50 50 49 49 49 48 47 46 45 45 45 45 45 46 47 48 49 50 51 51 51 51 51 51 51 50 49 48 47 45 44 42 41 40 39 38 37 37 36 35 35 34 34 33 33 32 31 31 30 30 30 29 29 29 29 30 30 30 30 30 30 30 30 30 30 30 29 28 27 26
63 63 63 63 63 63 63 62 62 62 61 60 59 58 56 54 52 51 51 50 50 49 48 48 47 47 46 46 46 46 47 48 49 50 51 52 52 52 52 52 52 52 52 51 50 49 47 46 44 43 41 40 39 38 37 36 35 35 34 34 34 33 33 32 31 31 30 30 30 30 30 30 30 30 30 30 30 30 30 31 30 30 29 27 26 25
64 64 64 65 65 65 64 64 63 63 63 62 61 60 59 57 55 53 52 52 51 50 50 49 49 49 49 48 48 47 47 48 49 50 51 52 52 52 52 53 53 53 53 53 52 51 50 48 47 45 43 41 40 39 39 37 36 35 35 35 35 35 34 33 32 32 32 31 31 31 31 31 31 31 31 31 30 30 31 31 31 30 29 27 26 25
64 64 65 65 66 66 65 65 64 64 64 63 63 62 61 60 58 56 55 54 53 52 52 51 51 51 51 50 49 48 48 48 49 50 51 51 52 52 52 53 54 54 54 53 53 52 50 49 48 46 44 43 42 41 40 39 38 37 36 36 36 36 35 35 34 33 33 32 32 32 32 32 32 31 31 31 30 30 30 31 31 30 29 28 26 25
63 64 64 65 65 65 65 65 65 65 64 64 63 64 63 63 61 59 58 56 55 54 53 53 53 53 52 51 51 50 48 48 48 49 50 51 52 52 52 53 54 54 54 54 53 52 51 50 49 47 45 44 43 43 42 41 39 38 38 38 38 37 37 36 35 35 34 34 33 33 33 32 32 32 32 31 30 30 30 31 31 30 30 28 27 26
62 62 62 63 64 64 64 65 65 64 64 63 63 63 63 63 63 62 60 59 57 56 55 55 54 54 53 52 52 51 49 48 48 49 50 51 52 52 52 53 54 55 55 54 53 52 51 50 49 48 46 45 44 44 43 43 42 40 39 39 39 39 38 37 37 36 35 35 34 34 33 33 33 33 32 32 31 30 31 31 31 30 30 29 27 26
60 60 60 60 61 62 63 63 63 63 62 62 62 61 60 61 61 62 62 61 59 58 57 57 56 55 54 53 52 51 50 48 48 49 50 50 52 52 53 53 54 55 55 55 54 53 52 51 50 49 47 46 45 44 44 44 44 43 41 41 40 40 39 39 38 37 36 36 35 35 34 34 33 33 33 32 31 31 31 31 31 31 30 29 28 27
58 58 59 58 58 59 60 61 61 60 60 60 60 59 59 59 59 60 61 62 61 60 59 58 58 57 55 53 51 51 50 49 49 49 50 51 52 53 53 53 54 55 56 55 55 54 53 52 51 50 48 46 45 45 45 46 45 45 44 43 42 41 40 40 39 38 38 37 36 35 35 34 34 34 34 33 32 32 32 32 32 32 31 30 28 27
56 57 58 57 56 56 58 58 58 57 57 57 57 57 58 57 57 57 59 59 60 60 60 60 59 58 56 53 51 51 51 51 51 51 51 52 53 53 53 54 54 55 55 55 55 54 54 53 52 51 49 48 46 46 46 46 47 46 45 44 43 42 41 41 40 39 39 38 37 36 35 35 35 35 35 34 33 32 32 33 33 32 31 30 29 28
54 55 56 55 55 55 56 56 55 55 55 54 55 56 56 56 56 56 56 55 56 57 59 59 59 58 57 54 52 52 52 52 52 52 52 53 54 54 53 53 54 55 55 55 55 54 54 53 53 52 50 49 48 47 47 47 47 48 47 46 45 43 42 41 41 40 40 39 38 37 36 36 36 36 35 34 34 33 33 33 33 33 32 31 30 29
53 54 54 54 54 54 54 54 54 53 53 53 53 54 54 54 55 55 55 54 54 55 56 56 57 58 58 56 54 53 53 53 52 53 53 54 54 54 53 53 53 54 54 54 54 54 54 53 53 52 51 50 49 49 48 47 48 49 49 47 46 45 43 42 42 41 41 40 39 38 37 37 37 36 36 35 34 33 33 33 33 33 32 32 31 31
52 52 53 53 53 53 53 53 52 52 51 51 52 52 52 53 53 54 55 56 55 55 54 54 56 58 59 58 56 55 55 53 52 52 53 54 54 54 53 53 53 53 53 54 54 54 54 53 53 53 52 51 51 50 50 49 49 50 49 48 47 46 44 43 42 42 41 40 39 38 38 37 37 37 36 35 35 34 33 33 33 33 33 33 32 32
53 52 52 52 52 52 52 51 51 51 50 50 51 51 51 51 52 52 53 54 55 54 55 55 57 58 59 57 57 56 56 54 53 52 53 53 54 54 54 53 52 52 53 53 53 53 53 53 53 52 52 52 52 51 51 51 51 51 50 49 48 47 45 44 43 43 42 41 40 39 38 38 38 37 37 36 35 34 34 33 33 33 33 33 33 33
54 54 53 53 52 52 51 50 50 50 50 49 49 50 50 50 51 52 53 54 53 53 53 53 54 55 54 54 54 55 55 54 53 53 52 52 53 54 54 53 52 52 52 52 52 53 53 53 52 52 52 52 52 52 52 52 52 51 51 50 48 47 46 45 44 43 42 41 40 40 39 39 38 38 37 36 35 34 34 33 33 33 33 33 33 32
54 54 54 54 53 53 52 51 50 50 49 48 48 48 48 49 50 52 53 53 52 51 51 52 52 50 49 48 50 51 51 51 52 52 52 51 52 54 54 53 52 52 52 52 52 52 52 52 52 52 51 51 51 51 51 51 51 51 50 50 49 48 47 46 45 44 43 42 41 40 40 39 39 38 37 36 36 35 34 34 33 33 33 32 32 31
53 54 54 54 54 53 52 51 50 49 48 47 47 46 46 47 48 50 52 51 50 49 51 51 50 47 45 45 47 47 47 48 49 50 49 50 52 54 54 52 52 52 52 52 52 52 52 52 51 51 50 50 50 51 51 51 51 50 50 49 49 48 47 46 45 44 43 42 41 41 40 40 39 38 37 37 36 35 35 34 33 33 32 31 31 31
53 53 53 53 53 53 53 52 51 50 48 47 45 45 44 45 46 48 49 49 48 49 50 51 49 46 44 44 46 47 48 49 48 46 46 47 50 53 52 51 52 52 52 52 51 51 51 51 51 50 49 49 49 49 50 50 50 50 50 49 49 48 47 47 46 45 44 43 42 41 41 40 39 39 38 37 36 36 35 34 34 33 32 31 30 30
53 53 53 53 53 53 53 52 52 51 49 47 45 44 43 43 44 45 46 47 47 48 50 51 50 48 46 44 44 46 48 49 47 44 43 45 48 50 50 50 51 52 52 51 51 51 51 50 50 49 48 48 48 48 49 49 50 50 50 50 49 48 48 47 46 45 44 43 43 42 41 41 40 39 38 37 37 36 35 35 34 33 32 31 30 30
54 53 53 53 53 53 53 52 52 51 50 48 46 45 43 42 42 43 44 45 46 47 48 50 51 51 50 47 45 45 47 47 45 43 42 43 46 47 47 48 49 51 51 50 50 50 50 49 48 47 47 47 47 47 48 49 49 50 50 49 49 49 48 48 47 46 45 44 43 42 42 41 40 39 38 38 37 37 36 35 34 33 32 31 30 30
53 53 53 53 53 53 52 52 51 50 49 48 47 45 43 42 42 42 42 43 44 45 46 48 51 53 54 51 48 46 46 47 47 46 44 44 45 46 46 46 47 48 49 49 49 49 49 48 47 46 45 45 46 46 47 48 48 49 49 49 49 49 48 48 47 46 45 44 43 43 42 41 40 39 39 38 38 37 37 36 35 34 33 31 30 29
51 51 51 51 51 51 51 50 49 49 48 48 47 45 44 42 41 41 40 41 42 43 45 47 49 53 56 56 54 50 49 51 53 52 49 46 46 46 46 45 45 46 47 47 48 48 47 46 45 44 44 44 44 45 45 46 47 48 48 48 48 48 48 48 47 47 46 45 44 43 42 42 41 40 39 39 38 38 37 37 36 35 33 31 30 29
49 49 49 48 48 48 48 48 48 48 48 47 46 45 43 42 41 40 39 39 40 41 43 44 46 49 53 56 57 55 54 56 57 55 50 48 47 47 45 44 44 44 44 45 45 45 45 45 44 43 42 42 42 43 44 45 46 46 47 47 47 48 48 48 47 47 46 45 44 44 43 42 41 40 39 39 38 38 37 37 37 35 34 32 31 30
47 47 46 46 45 45 45 46 46 47 47 47 45 44 42 41 40 39 39 39 39 40 41 41 42 45 48 52 55 57 57 58 57 53 49 47 47 46 45 44 43 43 43 43 43 43 43 43 43 43 42 41 40 41 43 44 45 45 46 47 47 47 48 47 47 47 46 45 45 44 43 42 41 40 39 39 38 38 37 37 36 35 33 32 31 30
46 46 45 44 44 44 44 45 45 45 45 45 45 43 41 40 39 39 39 39 40 40 40 40 40 41 43 46 50 52 54 53 52 49 47 46 45 45 45 44 43 42 42 42 42 41 41 42 42 42 41 40 40 40 41 42 43 44 45 46 47 47 48 47 47 47 46 46 45 44 43 42 41 40 39 39 38 38 37 37 36 35 34 32 31 31
44 44 44 43 43 43 43 43 43 43 43 43 43 41 39 38 37 38 39 40 41 41 41 41 41 41 42 43 45 46 47 45 45 45 45 45 45 45 45 45 43 42 42 41 41 40 40 41 41 41 40 40 39 39 39 40 42 43 45 46 47 47 48 48 47 47 47 46 46 45 44 42 41 40 40 39 39 38 37 36 36 35 34 33 32 31
42 42 42 41 41 42 42 42 42 42 42 42 41 40 38 36 36 37 38 40 41 41 41 42 43 43 43 44 44 44 44 43 43 45 45 45 45 45 45 44 43 42 42 41 40 40 40 40 41 40 39 38 38 38 39 40 41 42 44 45 47 48 48 48 47 47 47 47 46 45 44 43 42 41 40 40 39 38 37 36 35 35 34 33 32 32
40 40 39 39 39 39 39 40 40 40 40 41 41 40 38 36 35 36 37 39 40 40 40 41 42 43 45 46 46 46 46 46 45 44 43 42 42 42 42 42 42 42 42 41 41 40 40 40 40 39 38 37 37 37 38 39 41 42 43 45 47 48 48 48 48 47 47 47 47 46 45 44 43 42 41 40 39 38 37 36 35 35 34 33 32 32
38 38 37 36 35 35 35 35 36 37 38 39 39 39 38 36 35 35 36 37 38 39 39 39 41 43 45 46 48 49 50 49 45 40 37 36 36 37 39 40 41 42 42 43 42 41 40 39 39 38 37 37 37 37 38 40 41 42 44 46 47 48 47 48 48 48 48 48 48 47 46 45 43 43 42 41 40 39 38 36 35 35 34 33 32 32
36 35 34 33 32 32 32 32 33 34 35 36 37 37 36 35 34 34 34 35 36 37 37 38 40 42 45 47 49 51 53 51 47 40 35 33 32 34 36 38 40 41 42 44 44 43 41 39 38 38 37 37 38 38 39 40 41 43 45 46 47 47 47 47 48 48 48 49 49 48 47 45 44 44 43 42 40 39 38 37 36 35 33 33 32 32
33 32 32 31 31 31 32 32 32 33 34 34 35 35 34 33 32 32 33 34 35 35 36 37 39 41 44 46 48 51 53 52 48 42 36 32 31 33 35 37 39 40 42 44 44 43 41 39 38 38 38 38 39 40 41 42 43 44 46 47 48 49 49 49 48 48 48 49 49 48 47 46 45 44 43 42 41 40 38 37 36 34 33 32 32 32
32 33 33 33 34 34 34 34 33 33 33 34 34 33 32 31 30 30 31 32 33 34 35 36 38 40 42 44 46 49 50 50 47 42 37 33 32 33 35 36 38 40 41 43 43 42 40 39 39 40 40 40 40 41 42 43 44 45 47 48 49 50 50 49 48 48 48 49 49 48 47 47 46 44 43 42 41 40 38 37 35 34 33 33 32 32
35 36 36 36 36 36 35 35 34 33 33 34 34 33 32 30 29 29 31 32 33 33 35 36 36 38 40 42 43 45 46 46 45 41 37 34 33 33 35 36 38 39 41 42 42 41 40 40 41 41 41 41 41 41 42 43 44 45 47 48 49 50 50 49 49 49 49 49 48 48 47 47 46 45 44 43 41 40 38 36 35 34 34 33 33 33
36 36 36 36 36 36 36 35 34 33 33 34 34 33 32 31 30 29 30 31 32 33 34 35 36 37 38 40 41 42 43 43 42 40 38 35 34 34 36 37 39 40 41 42 41 41 41 41 41 41 42 41 41 41 41 42 43 45 46 47 49 49 49 49 50 50 50 49 48 47 47 46 45 44 44 43 41 39 38 36 35 35 35 35 34 33
34 34 34 34 34 34 34 33 33 33 33 34 34 34 33 31 30 30 30 31 32 33 34 35 36 37 38 38 39 40 41 42 42 41 39 37 36 35 36 38 39 41 41 41 41 40 40 40 41 41 41 41 40 40 40 41 43 44 46 47 48 49 49 49 50 51 50 49 48 47 47 46 45 44 43 42 41 39 38 37 36 36 36 35 35 34
32 32 32 31 31 32 32 32 32 32 32 33 33 33 33 32 31 31 31 31 32 33 34 35 36 36 37 38 39 40 41 42 42 41 40 38 37 37 37 38 40 41 42 41 40 40 39 39 40 41 41 41 40 39 39 40 43 45 47 48 49 48 48 49 50 50 50 49 48 47 47 46 45 44 42 41 40 39 38 37 37 36 36 36 35 34
29 29 29 29 29 30 30 30 30 31 31 32 33 33 33 32 31 31 31 31 31 32 33 34 35 35 37 38 39 40 41 41 40 38 36 35 36 37 38 40 42 43 43 41 40 39 38 39 40 41 42 41 39 37 38 40 43 46 48 49 49 48 48 48 49 50 49 48 48 47 47 46 44 43 42 41 40 39 38 38 37 37 36 36 35 34
27 27 28 28 29 29 29 29 30 30 31 31 32 32 32 31 30 30 29 29 30 31 32 33 34 35 36 38 39 39 39 38 35 32 29 30 33 37 40 42 44 45 44 41 39 38 39 40 41 42 42 41 39 37 36 39 42 46 49 50 49 48 47 48 48 48 48 47 48 47 47 46 45 44 42 41 40 39 38 38 37 36 36 35 34 34
26 27 28 28 28 29 29 29 29 29 30 31 31 31 31 30 29 28 27 28 29 30 31 32 33 34 36 37 37 37 36 34 30 26 24 26 32 37 41 43 45 45 43 40 39 39 40 41 42 42 43 42 40 37 35 37 40 44 47 48 48 47 47 47 47 46 46 47 47 47 47 47 46 45 44 42 41 40 39 38 37 36 35 34 34 34
Wind_Direction
288 289 288 288 288 288 287 286 285 284 282 280 277 275 273 271 270 268 267 265 264 263 262 262 261 261 260 258 257 256 256 257 257 257 256 254 254 253 252 250 249 248 248 248 248 249 250 252 253 254 254 253 253 253 254 255 256 256 256 256 256 256 256 256 256 256 255 253 249 247 246 248 252 256 260 261 261 260 259 259 258 256 253 251 254 261
288 288 288 288 288 287 287 286 285 284 283 281 278 276 273 271 270 268 267 265 264 262 261 261 260 259 259 257 256 255 254 254 254 255 255 255 254 254 253 252 251 250 249 249 249 249 250 251 251 251 250 250 250 251 253 254 254 255 256 256 256 256 255 255 254 254 253 250 247 246 246 249 253 256 258 258 257 257 257 258 257 255 252 250 252 258
287 287 287 287 287 287 286 286 285 283 282 281 279 276 274 272 270 269 267 266 264 263 261 260 260 259 258 258 256 255 253 252 252 253 254 254 254 254 254 253 252 252 251 250 250 250 250 250 249 248 248 248 248 249 251 252 253 254 255 255 255 255 254 253 252 251 250 248 246 245 246 248 251 253 254 254 254 254 255 256 256 254 251 249 251 255
286 286 286 286 286 285 285 285 284 283 281 280 278 277 275 273 271 269 268 266 265 263 262 261 260 259 258 257 256 255 254 252 252 252 252 253 254 254 253 253 253 252 252 251 250 250 249 249 248 247 247 248 249 250 250 251 252 253 253 254 254 253 252 251 250 249 248 246 245 245 245 247 248 250 250 250 251 252 253 254 254 252 250 249 250 254
284 285 285 285 285 284 284 284 283 282 281 279 278 277 275 273 272 270 268 267 265 264 262 261 259 258 258 257 256 255 254 252 251 251 251 252 252 253 253 252 252 252 251 250 249 248 248 247 246 246 247 249 251 251 251 251 251 252 252 253 252 251 250 248 247 246 245 245 244 244 244 245 246 246 246 247 249 250 252 253 252 250 249 248 250 253
283 283 284 284 284 284 283 283 282 282 281 279 278 277 275 274 272 270 268 267 265 264 263 261 259 258 257 256 256 255 253 252 251 250 250 250 251 251 252 251 251 250 249 248 247 246 245 245 245 245 248 250 252 253 252 252 251 251 251 251 251 250 248 246 245 243 243 242 242 242 243 243 243 243 245 246 248 250 251 251 250 248 247 247 249 251
282 282 282 282 282 282 282 282 281 281 280 279 278 277 275 273 272 270 269 267 266 264 263 261 260 258 257 256 255 254 253 252 250 249 249 249 249 250 251 251 250 249 247 246 245 244 243 243 243 245 248 251 253 253 253 252 252 251 251 251 250 248 246 244 242 241 240 239 240 240 241 241 241 242 244 246 248 250 250 250 249 247 246 246 247 249
281 280 280 280 280 280 280 280 279 279 279 278 278 276 275 273 272 270 269 268 266 265 264 262 260 259 257 256 255 254 253 252 250 249 248 248 248 248 249 250 249 247 245 244 243 243 242 243 244 245 248 250 252 253 253 252 252 251 251 250 248 247 245 242 240 238 237 237 237 238 239 240 241 242 244 247 249 250 250 249 248 247 246 246 247 248
279 279 279 279 279 279 279 278 278 277 277 276 276 275 274 273 272 270 269 268 267 266 265 263 261 259 257 256 254 253 252 251 250 249 248 247 246 247 248 248 247 245 243 242 241 241 242 243 244 246 248 249 250 251 252 251 251 250 250 249 247 245 243 240 238 236 235 236 236 237 239 240 242 243 245 248 249 250 250 249 248 247 248 248 249 249
278 278 278 278 277 277 277 277 276 276 275 274 274 273 273 272 272 271 269 268 267 266 265 264 262 260 258 256 254 253 252 251 250 248 246 244 244 244 245 246 245 243 242 240 240 240 241 243 245 247 248 249 249 249 250 250 249 249 248 247 245 243 241 238 236 235 235 235 236 238 239 241 243 245 246 248 249 250 249 248 247 247 248 250 251 250
277 277 277 277 277 276 276 276 275 275 274 273 272 272 271 271 271 270 269 268 267 266 265 264 263 261 259 257 254 253 251 250 248 247 245 242 241 241 242 243 243 242 241 240 240 240 241 243 245 247 248 248 248 248 248 248 248 247 247 246 244 241 239 236 235 234 235 236 237 239 240 242 244 246 247 248 249 249 248 247 246 246 248 249 250 249
276 276 276 276 276 275 275 275 274 274 273 272 271 270 270 269 269 269 269 268 266 265 264 263 262 260 259 257 255 253 251 249 247 246 244 242 240 239 240 241 242 243 242 242 241 241 242 243 245 246 247 247 247 246 246 246 246 246 245 244 243 240 238 235 234 234 235 236 238 240 242 243 245 246 247 248 248 248 247 246 245 245 246 246 247 247
275 275 275 275 274 274 274 274 274 273 272 271 270 270 269 268 268 267 267 266 265 264 262 261 260 259 258 257 255 253 251 249 247 246 244 242 241 240 239 240 241 242 243 244 244 244 244 244 245 246 246 246 245 244 244 244 244 244 244 243 242 240 237 235 234 234 235 237 239 240 242 244 245 246 247 247 247 246 246 245 244 243 243 243 244 245
274 274 274 273 273 273 273 273 273 273 272 271 270 269 268 267 266 265 265 264 264 263 262 260 259 257 256 255 254 253 251 249 247 246 245 243 242 241 240 241 241 242 243 245 246 246 246 246 246 246 245 244 243 243 243 243 243 242 242 242 241 240 238 236 235 235 236 237 239 241 242 244 245 245 246 246 246 245 244 242 241 240 239 240 242 244
273 273 272 272 272 272 272 272 272 272 272 271 270 269 267 266 265 264 264 263 263 262 261 260 258 257 255 254 253 252 251 250 248 247 245 244 243 242 242 242 242 242 243 244 245 246 247 247 246 245 244 243 242 241 241 241 241 241 241 241 240 239 238 237 236 236 236 238 239 241 242 244 245 245 245 245 245 243 242 240 238 236 236 237 240 243
273 272 272 271 271 271 271 271 271 271 271 271 270 269 268 266 265 263 263 262 261 261 260 259 258 256 255 253 252 251 250 250 249 248 247 246 245 244 242 242 242 243 243 244 244 245 246 246 245 244 242 241 240 240 240 240 240 240 239 239 239 239 238 237 236 236 237 238 239 241 242 243 244 245 245 245 244 242 240 238 236 235 235 237 240 242
273 273 272 271 271 271 271 270 270 270 270 270 270 269 268 267 265 263 262 261 260 260 259 258 257 256 255 254 252 250 249 249 249 249 248 247 246 244 243 242 242 242 243 243 243 244 244 244 244 243 241 239 238 238 239 239 239 239 238 238 238 238 238 237 237 237 237 238 239 240 242 243 244 245 245 245 244 242 241 239 237 237 237 239 241 242
274 273 272 272 271 271 270 270 270 269 269 269 269 269 269 268 266 265 263 261 260 259 258 257 256 256 255 254 253 251 249 248 248 248 248 248 247 245 244 243 242 242 242 242 242 242 242 243 242 242 240 238 237 237 238 238 239 238 237 237 237 237 237 237 237 237 237 238 239 240 241 243 244 245 246 245 245 243 241 240 239 239 240 241 242 242
275 274 273 272 272 271 270 269 269 269 269 269 269 269 269 269 268 266 264 262 260 259 258 257 256 255 255 254 254 253 251 249 248 248 247 247 247 246 244 242 242 241 241 240 240 240 240 240 241 240 239 237 236 236 237 238 238 238 237 236 236 236 236 237 237 237 237 238 239 239 241 242 244 245 245 245 245 243 241 240 240 240 241 241 241 241
276 275 274 273 273 272 271 270 269 269 268 268 267 267 267 268 268 267 266 264 262 260 258 257 256 255 254 254 254 253 252 250 248 247 246 246 246 245 243 242 241 240 240 240 239 238 238 238 238 238 237 236 234 235 236 237 238 237 237 236 236 236 236 236 237 237 237 238 238 239 240 241 243 244 245 245 244 243 241 240 239 239 240 240 240 240
278 277 276 275 274 274 272 271 270 269 268 268 267 266 265 265 265 266 266 265 264 262 260 258 256 254 253 253 252 252 252 250 248 246 245 244 244 243 242 241 240 240 239 239 239 238 237 236 236 236 236 234 233 233 235 237 238 238 237 236 236 236 236 236 237 237 237 238 238 239 239 241 242 243 244 244 244 242 241 239 238 238 238 239 239 238
279 279 278 277 276 275 274 273 272 270 269 268 267 266 264 263 263 263 263 264 264 263 262 260 258 255 253 251 250 250 249 248 247 246 244 243 242 241 241 240 239 239 239 239 238 238 237 236 236 235 234 232 231 231 233 235 237 237 237 236 236 236 236 236 237 237 238 238 238 238 239 240 241 242 243 243 243 242 240 239 237 237 237 237 237 237
279 279 279 278 277 276 275 274 273 272 270 269 267 266 264 263 261 260 261 261 262 263 262 261 260 257 254 251 249 248 247 246 245 245 244 243 242 241 240 239 238 238 238 238 238 238 237 236 235 235 233 231 229 230 232 234 236 237 237 237 236 236 236 236 237 237 238 238 238 238 239 239 240 241 241 242 242 241 240 238 236 235 235 235 236 237
278 278 278 278 277 276 276 275 274 273 271 270 268 266 265 263 261 259 258 258 258 258 258 258 258 258 255 252 249 247 246 245 245 244 244 244 243 241 240 239 238 237 237 237 237 237 236 236 235 234 233 231 229 229 231 233 235 236 237 236 236 235 236 236 237 237 238 238 238 238 238 239 239 240 240 241 241 240 239 237 235 234 233 234 236 237
277 277 277 277 276 276 275 274 274 273 272 270 269 267 265 264 261 259 257 256 254 254 254 255 256 256 255 253 251 248 246 245 244 245 245 244 244 243 241 239 238 237 236 236 235 235 235 235 235 234 233 231 229 229 230 231 233 235 236 236 236 235 235 236 237 237 237 237 237 237 237 238 238 239 239 239 239 239 238 236 234 232 232 234 235 237
277 277 277 276 276 275 275 274 273 272 271 270 268 267 266 265 263 260 258 256 254 253 252 252 253 254 254 254 252 250 247 246 245 245 245 245 245 244 242 240 239 238 237 235 234 234 234 234 234 234 233 232 230 229 229 230 232 234 235 235 235 235 234 235 236 237 237 236 236 236 236 237 237 238 238 238 238 237 236 234 233 231 232 234 235 237
277 277 277 276 276 275 274 273 272 271 270 269 268 267 267 266 264 262 260 257 255 254 252 252 253 254 255 255 254 253 251 249 247 246 246 246 246 245 244 241 240 239 238 236 234 233 233 233 232 232 232 231 230 230 229 230 231 232 234 234 234 234 234 234 235 236 236 235 235 235 235 236 236 237 237 237 236 235 234 232 231 231 232 234 235 236
278 277 277 277 276 276 275 274 273 272 271 270 269 267 266 265 265 264 262 260 257 255 253 252 252 253 255 257 257 256 255 253 250 248 247 246 246 246 244 242 241 239 239 237 235 233 232 232 231 231 231 231 230 230 230 230 231 232 233 233 234 233 233 233 235 235 235 234 234 233 234 234 235 235 236 235 234 233 232 230 230 230 231 233 234 236
278 277 277 277 276 276 276 275 274 273 272 271 269 268 266 264 263 263 263 261 259 256 253 251 249 249 252 256 258 259 256 253 251 249 247 246 246 246 245 243 241 240 239 238 236 234 233 232 231 230 230 230 230 230 230 230 230 231 232 232 232 232 232 233 234 234 234 233 233 232 232 233 233 234 234 233 232 231 229 229 228 229 230 232 233 235
277 277 276 276 276 275 275 275 275 274 273 271 270 268 266 263 262 261 262 261 259 256 253 249 246 243 244 250 256 259 255 251 249 247 246 245 246 246 245 244 242 241 239 238 237 235 234 232 231 230 230 229 229 229 229 229 229 229 230 230 231 231 231 232 233 233 233 232 231 231 231 231 232 232 232 231 230 229 228 227 227 228 229 231 233 234
277 276 275 274 274 274 274 274 274 274 273 272 270 267 265 262 261 260 260 260 258 256 253 249 244 239 238 243 251 255 254 251 249 246 244 244 245 247 247 246 244 242 240 238 237 237 235 233 231 230 229 229 229 228 228 228 228 228 228 228 228 228 229 230 231 231 231 230 230 230 230 230 230 230 230 229 228 227 226 226 226 227 229 230 232 233
277 276 274 273 272 272 271 271 272 272 272 271 270 267 264 262 260 259 258 258 256 255 252 249 244 239 236 238 244 251 254 254 252 247 244 245 247 249 250 248 246 244 241 238 237 237 236 234 232 231 230 229 229 228 227 227 227 227 227 227 227 227 227 228 229 229 229 228 228 228 228 228 228 228 228 227 226 225 225 225 226 227 228 230 232 233
280 278 276 274 273 272 271 270 270 270 270 270 269 267 265 262 259 258 257 256 255 253 251 249 244 240 236 236 240 246 252 255 253 249 245 246 249 251 252 250 247 245 241 239 237 236 236 234 233 231 231 230 229 228 227 226 226 226 226 226 226 226 226 227 227 227 227 227 227 227 227 227 227 227 227 226 225 224 224 224 225 227 229 230 232 233
281 279 278 277 275 274 273 271 270 269 268 268 267 266 264 262 259 257 255 254 253 252 250 248 245 241 238 237 239 243 247 250 250 248 246 247 249 251 252 250 248 245 242 239 237 236 236 235 233 232 232 230 229 228 227 226 225 225 225 225 225 225 226 226 227 227 226 226 225 226 226 226 225 225 226 226 225 224 223 224 226 228 230 231 232 233
281 280 279 277 276 275 274 272 271 269 268 267 267 266 264 261 258 256 254 252 250 250 249 249 247 243 240 238 239 241 244 245 246 246 246 247 248 250 251 250 247 244 241 238 236 236 236 235 234 233 232 231 229 228 226 225 224 224 224 224 224 224 225 226 226 226 226 225 225 225 225 225 225 225 225 226 225 224 224 225 226 228 231 232 233 233
283 281 279 278 276 274 273 272 270 269 268 267 267 266 264 261 258 254 251 249 247 247 248 248 247 245 243 241 240 241 243 244 245 246 245 245 246 248 249 248 247 243 240 236 235 235 236 236 235 233 232 230 229 227 225 224 223 222 222 222 222 223 223 224 225 225 224 224 225 225 225 224 224 224 225 226 225 225 224 225 227 229 231 233 233 231
285 284 282 279 277 275 273 271 270 269 268 267 267 265 264 261 256 252 248 245 244 244 245 246 246 246 244 242 241 241 242 244 245 246 244 243 244 245 245 246 245 242 238 234 233 233 235 236 236 234 232 230 228 226 225 223 222 221 221 221 221 221 222 223 223 222 221 222 223 223 224 223 222 223 224 225 225 224 224 225 226 228 231 232 232 230
287 286 284 282 280 278 276 275 273 272 270 269 267 266 264 260 255 250 246 243 241 241 242 243 245 245 245 243 241 240 240 242 244 245 245 243 241 240 241 241 241 239 235 232 231 232 234 235 235 234 232 229 226 225 224 223 222 221 220 219 220 220 221 221 221 220 219 219 220 221 221 221 220 221 223 224 224 224 223 223 225 228 231 232 232 230
287 287 286 285 283 281 280 279 277 275 274 272 270 268 265 261 255 250 245 242 241 240 241 242 244 244 244 242 239 236 235 236 240 245 246 244 240 237 236 236 235 234 231 228 228 231 233 234 234 233 231 228 225 223 222 222 221 221 220 219 219 219 220 220 219 218 217 217 217 218 218 218 219 220 221 223 224 223 222 222 225 228 231 233 232 230
287 287 287 286 285 284 282 281 280 278 276 274 272 270 266 262 256 251 246 242 241 241 241 243 244 244 243 241 237 233 231 232 237 242 244 242 239 235 232 231 230 229 226 225 226 229 231 232 232 231 229 226 224 222 221 221 221 220 220 219 218 218 219 219 218 218 217 217 216 216 216 216 217 218 220 222 223 223 222 222 225 228 231 233 232 232
287 287 287 288 288 287 285 284 282 280 277 275 273 271 268 264 258 252 246 243 241 241 242 244 244 244 243 240 236 232 230 232 236 240 241 240 237 233 229 227 227 226 223 222 223 226 229 230 231 229 227 225 223 222 222 221 221 220 219 219 219 219 219 218 218 217 217 216 216 215 214 214 215 217 219 221 222 222 222 223 225 228 231 232 231 232
285 285 287 287 288 287 286 284 282 280 277 276 274 272 269 265 260 253 248 244 242 241 243 244 245 244 243 240 236 232 232 233 235 238 239 238 235 230 226 225 224 223 222 221 222 224 227 228 228 227 225 223 222 222 222 221 221 220 220 219 219 218 218 218 218 218 217 216 215 214 213 213 214 215 218 219 221 221 222 223 226 228 229 230 229 230
282 282 283 283 283 282 281 280 278 277 276 275 274 272 270 265 260 254 249 245 243 242 243 244 245 245 244 241 237 234 233 234 235 236 236 235 232 227 225 223 223 222 221 221 222 223 224 225 226 226 224 223 222 222 221 220 220 220 220 219 218 217 216 217 218 218 218 217 215 213 212 212 213 214 216 218 219 221 222 224 226 227 228 228 229 230
281 280 279 279 279 278 278 277 276 275 275 274 273 272 269 265 259 253 248 246 244 244 244 245 246 245 244 241 238 235 233 233 234 234 234 232 228 225 223 222 221 221 221 221 221 221 222 224 224 224 224 224 224 223 222 220 220 220 219 219 218 217 217 217 217 218 218 217 215 213 212 212 212 213 215 217 218 220 221 223 225 226 227 227 228 230
278 277 277 277 277 277 277 276 276 275 273 272 272 271 269 264 258 252 247 245 244 244 244 245 246 245 244 241 238 235 232 231 230 230 230 228 226 223 222 221 220 220 220 219 219 220 222 224 224 224 224 225 226 225 223 221 219 219 219 219 218 218 217 217 217 218 218 217 215 213 212 212 212 213 214 216 217 219 221 222 223 224 225 227 229 231
277 277 277 277 276 275 275 274 273 272 271 270 270 270 268 264 258 252 247 244 243 244 244 245 245 244 242 240 236 233 230 227 226 225 224 223 222 221 221 220 220 219 218 217 218 220 223 224 224 224 225 226 227 227 224 221 219 219 219 219 219 218 217 216 216 217 217 216 214 213 212 212 212 212 214 215 217 218 220 220 221 223 225 227 229 230
280 279 278 277 276 274 273 271 270 269 268 268 268 268 267 264 260 254 248 245 243 243 244 244 244 243 241 237 234 230 227 224 222 221 222 220 218 217 219 221 220 218 215 216 220 223 224 222 222 224 226 229 230 230 226 222 219 218 219 219 219 218 217 217 217 217 216 214 213 212 212 211 211 212 214 215 217 218 218 219 220 222 224 227 228 228
281 280 279 278 277 275 273 270 268 267 266 266 266 267 266 264 260 255 251 247 244 244 245 245 244 242 239 236 232 229 226 223 222 223 224 221 217 215 217 219 218 216 215 218 222 224 222 220 220 223 226 230 233 232 229 224 219 217 217 219 219 218 217 217 218 217 216 213 212 211 211 211 211 212 213 215 216 217 217 218 220 222 224 226 226 225
283 282 281 281 279 277 275 272 269 267 265 264 264 264 265 264 261 257 253 249 246 245 245 245 244 242 239 236 233 229 226 225 225 227 227 222 217 213 214 216 216 216 217 221 223 221 217 216 218 221 225 229 231 231 230 225 220 217 216 218 218 218 217 218 218 218 216 213 211 210 209 210 210 212 213 215 216 216 216 218 220 222 223 224 223 220
286 285 284 283 282 280 277 275 272 268 265 263 262 262 262 262 260 258 254 251 248 246 245 244 243 241 239 237 235 232 229 227 229 232 232 224 216 212 212 213 215 217 221 223 221 216 213 214 217 220 224 227 229 229 227 224 220 216 215 216 216 216 216 217 218 217 215 212 210 209 208 208 209 210 212 214 215 216 217 219 220 221 222 221 219 216
288 287 286 285 283 281 279 276 273 269 266 262 260 259 259 259 258 257 255 251 248 246 244 243 242 241 240 239 237 233 230 229 234 239 239 227 216 211 210 212 215 219 222 223 219 213 211 212 216 219 223 225 227 228 225 222 218 215 213 213 213 214 215 217 218 216 214 211 210 209 208 208 208 208 210 212 213 215 217 219 220 220 220 218 215 213
Height
3022 3022 3023 3023 3024 3024 3025 3027 3028 3028 3028 3028 3028 3028 3027 3027 3026 3026 3026 3027 3027 3027 3027 3028 3028 3028 3028 3029 3030 3030 3031 3031 3032 3032 3032 3032 3032 3033 3033 3033 3033 3033 3033 3034 3034 3035 3035 3036 3036 3037 3038 3038 3038 3039 3039 3039 3039 3040 3040 3040 3040 3041 3041 3041 3042 3043 3043 3043 3044 3045 3046 3046 3046 3047 3048 3048 3049 3049 3050 3050 3051 3051 3052 3052 3052 3053
3018 3018 3019 3019 3020 3020 3021 3023 3024 3024 3024 3024 3024 3024 3024 3023 3023 3023 3023 3023 3023 3023 3024 3024 3024 3025 3025 3026 3026 3027 3028 3028 3028 3029 3029 3029 3029 3030 3030 3030 3030 3030 3031 3031 3031 3032 3033 3033 3033 3034 3035 3035 3036 3036 3036 3037 3037 3037 3038 3038 3038 3038 3038 3039 3040 3040 3041 3042 3042 3043 3043 3044 3044 3045 3046 3046 3047 3047 3048 3048 3049 3049 3049 3050 3050 3051
3014 3014 3014 3015 3016 3016 3017 3018 3020 3020 3020 3020 3020 3021 3020 3020 3019 3019 3019 3019 3019 3020 3020 3020 3021 3021 3022 3022 3023 3023 3024 3024 3025 3025 3026 3026 3026 3027 3027 3027 3027 3028 3028 3028 3028 3029 3030 3030 3031 3031 3032 3032 3033 3033 3033 3034 3034 3034 3035 3035 3035 3036 3036 3037 3037 3038 3038 3039 3040 3040 3041 3041 3042 3043 3044 3044 3045 3045 3046 3046 3047 3047 3047 3048 3049 3049
3011 3010 3010 3011 3011 3012 3013 3014 3015 3016 3016 3016 3017 3017 3017 3017 3016 3016 3016 3016 3016 3016 3016 3017 3017 3018 3018 3018 3019 3020 3020 3021 3021 3022 3022 3023 3023 3023 3023 3024 3024 3025 3025 3025 3026 3026 3027 3028 3028 3028 3029 3029 3030 3030 3031 3031 3031 3032 3032 3033 3033 3033 3034 3034 3035 3035 3036 3037 3037 3038 3038 3039 3040 3041 3042 3042 3043 3043 3043 3044 3044 3045 3045 3046 3047 3047
3008 3007 3006 3007 3007 3007 3008 3009 3010 3011 3012 3012 3012 3013 3013 3013 3013 3013 3012 3012 3012 3012 3013 3013 3014 3014 3014 3015 3015 3016 3017 3017 3018 3018 3018 3019 3019 3019 3020 3020 3021 3021 3022 3022 3023 3023 3024 3024 3025 3026 3026 3027 3027 3028 3028 3028 3029 3029 3030 3030 3030 3031 3031 3032 3032 3033 3033 3034 3034 3035 3036 3037 3038 3038 3039 3040 3040 3041 3042 3042 3043 3043 3043 3044 3044 3045
3004 3003 3003 3003 3002 3003 3004 3005 3006 3007 3007 3007 3008 3008 3008 3008 3009 3008 3008 3008 3008 3009 3009 3009 3010 3010 3011 3011 3012 3012 3013 3013 3014 3014 3015 3015 3016 3016 3016 3017 3017 3018 3018 3019 3019 3020 3021 3022 3022 3023 3024 3024 3025 3025 3026 3026 3026 3027 3027 3028 3028 3028 3028 3029 3029 3030 3031 3031 3032 3033 3033 3034 3035 3036 3037 3038 3038 3039 3039 3040 3040 3041 3041 3042 3042 3043
3000 2999 2999 2998 2998 2998 2999 3000 3001 3002 3002 3003 3003 3003 3004 3004 3004 3004 3004 3004 3005 3005 3005 3006 3006 3006 3007 3007 3008 3008 3009 3009 3010 3010 3011 3012 3012 3013 3013 3013 3014 3014 3015 3016 3016 3017 3018 3018 3019 3020 3021 3022 3022 3023 3023 3023 3024 3024 3024 3025 3025 3025 3026 3026 3027 3028 3028 3029 3030 3030 3031 3032 3033 3034 3035 3036 3036 3037 3038 3038 3038 3039 3039 3040 3040 3041
2995 2995 2995 2994 2994 2994 2994 2995 2996 2997 2998 2998 2998 2998 2999 2999 2999 3000 3000 3000 3000 3001 3001 3002 3002 3003 3003 3003 3004 3004 3005 3005 3006 3007 3007 3008 3008 3009 3009 3010 3010 3011 3012 3012 3013 3014 3014 3015 3016 3017 3018 3019 3019 3020 3020 3021 3021 3022 3022 3022 3023 3023 3023 3024 3024 3025 3026 3026 3027 3028 3029 3030 3031 3032 3033 3033 3034 3035 3035 3036 3037 3037 3037 3038 3038 3038
2991 2990 2990 2990 2990 2989 2989 2990 2991 2992 2993 2993 2993 2993 2993 2994 2994 2995 2996 2996 2996 2997 2997 2997 2998 2998 2999 2999 3000 3000 3001 3001 3002 3003 3003 3004 3005 3005 3006 3007 3007 3008 3008 3009 3010 3010 3011 3012 3013 3014 3015 3016 3016 3017 3017 3018 3018 3019 3019 3019 3020 3020 3021 3022 3022 3023 3023 3024 3025 3026 3026 3027 3028 3029 3030 3031 3032 3033 3033 3034 3034 3035 3035 3035 3036 3036
2987 2986 2985 2985 2985 2985 2984 2984 2985 2987 2988 2988 2988 2988 2989 2989 2989 2990 2991 2992 2992 2993 2993 2993 2993 2994 2995 2995 2996 2996 2997 2997 2998 2999 3000 3001 3001 3002 3003 3003 3003 3004 3005 3005 3006 3007 3008 3008 3009 3010 3012 3013 3013 3014 3014 3015 3015 3016 3016 3017 3017 3018 3018 3019 3020 3020 3021 3022 3022 3023 3024 3025 3026 3027 3028 3029 3030 3030 3031 3032 3032 3033 3033 3033 3034 3034
2982 2981 2981 2980 2980 2980 2980 2979 2980 2981 2983 2983 2983 2983 2984 2984 2985 2985 2986 2986 2988 2988 2988 2988 2988 2989 2990 2991 2992 2992 2993 2993 2994 2994 2995 2997 2998 2998 2999 2999 3000 3000 3001 3002 3002 3003 3004 3005 3006 3007 3008 3009 3010 3011 3011 3012 3012 3013 3013 3014 3015 3015 3016 3017 3017 3018 3018 3019 3020 3021 3022 3023 3023 3025 3026 3027 3028 3028 3029 3029 3030 3030 3031 3031 3032 3032
2976 2976 2976 2975 2975 2975 2974 2974 2974 2975 2977 2977 2977 2978 2979 2980 2981 2981 2980 2981 2982 2983 2984 2984 2984 2984 2985 2986 2987 2987 2988 2988 2989 2990 2991 2992 2993 2993 2994 2995 2995 2996 2997 2998 2998 2999 3000 3001 3002 3003 3005 3006 3007 3008 3008 3009 3009 3010 3011 3011 3012 3013 3013 3014 3015 3016 3016 3017 3018 3018 3019 3020 3021 3022 3023 3024 3025 3026 3026 3027 3028 3028 3029 3029 3030 3030
2971 2971 2970 2970 2969 2969 2969 2969 2969 2969 2970 2971 2972 2972 2973 2975 2976 2976 2975 2975 2976 2978 2978 2979 2979 2979 2980 2981 2981 2982 2983 2983 2984 2985 2986 2986 2987 2988 2989 2990 2991 2992 2993 2993 2994 2995 2996 2998 2999 3000 3001 3002 3003 3004 3005 3006 3006 3007 3008 3008 3009 3010 3011 3012 3013 3013 3014 3014 3015 3016 3017 3018 3019 3020 3021 3022 3023 3023 3024 3024 3025 3026 3027 3027 3028 3028
2966 2965 2965 2964 2964 2964 2964 2964 2963 2963 2963 2965 2966 2967 2968 2969 2970 2970 2970 2970 2971 2972 2973 2973 2973 2974 2975 2976 2976 2977 2978 2978 2978 2979 2980 2981 2982 2983 2984 2985 2986 2987 2988 2989 2990 2991 2993 2994 2995 2996 2998 2998 3000 3001 3002 3003 3003 3004 3005 3005 3006 3007 3008 3009 3010 3010 3011 3012 3013 3013 3014 3015 3016 3018 3018 3019 3020 3021 3022 3022 3023 3024 3024 3025 3025 3026
2960 2960 2959 2958 2958 2958 2958 2958 2958 2958 2957 2958 2960 2961 2962 2963 2964 2964 2965 2965 2965 2966 2967 2967 2968 2968 2970 2970 2971 2972 2972 2973 2973 2974 2974 2975 2977 2978 2980 2981 2981 2983 2983 2984 2985 2987 2988 2990 2991 2992 2994 2995 2996 2998 2998 2999 3000 3001 3002 3002 3003 3004 3005 3006 3007 3008 3008 3009 3010 3011 3012 3013 3014 3015 3016 3017 3018 3019 3019 3020 3021 3022 3023 3023 3023 3024
2954 2953 2953 2952 2952 2953 2953 2953 2953 2952 2952 2953 2953 2954 2955 2956 2957 2959 2959 2959 2960 2961 2962 2961 2962 2962 2963 2964 2966 2967 2967 2968 2968 2968 2969 2970 2972 2974 2975 2976 2976 2977 2978 2979 2981 2982 2984 2985 2987 2988 2990 2992 2993 2994 2995 2996 2997 2998 2998 2999 3000 3001 3002 3003 3004 3005 3006 3007 3007 3008 3009 3010 3011 3012 3013 3014 3015 3016 3017 3018 3019 3019 3020 3021 3021 3022
2948 2947 2947 2946 2946 2947 2947 2947 2947 2946 2947 2947 2947 2947 2948 2949 2950 2952 2953 2953 2954 2955 2955 2956 2956 2956 2956 2958 2960 2962 2963 2963 2963 2963 2965 2965 2967 2969 2970 2971 2971 2972 2973 2974 2976 2977 2979 2981 2982 2984 2986 2988 2989 2991 2992 2993 2993 2994 2995 2996 2997 2998 2998 3000 3001 3002 3003 3004 3004 3005 3006 3007 3008 3009 3010 3012 3013 3014 3015 3016 3016 3017 3018 3018 3019 3019
2941 2941 2941 2940 2940 2940 2941 2941 2941 2941 2941 2942 2941 2941 2942 2942 2943 2945 2946 2947 2948 2949 2949 2949 2950 2950 2951 2952 2954 2956 2958 2959 2958 2959 2960 2960 2962 2963 2965 2965 2965 2966 2968 2969 2971 2973 2974 2976 2978 2979 2982 2984 2986 2987 2988 2989 2990 2991 2992 2993 2993 2994 2995 2996 2998 2999 3000 3001 3002 3003 3003 3005 3006 3007 3008 3009 3010 3011 3012 3013 3014 3014 3015 3016 3016 3017
2934 2934 2935 2934 2934 2933 2934 2935 2935 2935 2935 2936 2936 2936 2936 2936 2937 2938 2938 2940 2941 2942 2943 2943 2943 2944 2945 2947 2948 2950 2953 2954 2954 2954 2955 2955 2956 2958 2959 2960 2960 2961 2962 2963 2966 2968 2970 2972 2973 2975 2977 2979 2981 2983 2984 2985 2986 2988 2988 2989 2990 2991 2992 2993 2994 2995 2997 2998 2999 3000 3001 3002 3003 3004 3005 3006 3007 3008 3009 3010 3011 3012 3013 3013 3014 3015
2928 2928 2929 2929 2928 2928 2928 2928 2929 2930 2930 2930 2930 2931 2931 2931 2931 2931 2931 2933 2934 2936 2936 2937 2937 2938 2940 2942 2943 2944 2947 2948 2949 2949 2950 2950 2951 2952 2953 2955 2955 2955 2957 2958 2960 2963 2965 2967 2969 2971 2973 2975 2977 2979 2980 2982 2983 2984 2985 2986 2987 2988 2988 2990 2991 2992 2993 2994 2996 2997 2998 2999 3000 3001 3002 3003 3004 3005 3006 3007 3008 3009 3010 3011 3012 3013
2922 2922 2922 2923 2923 2922 2921 2922 2923 2925 2925 2924 2924 2924 2925 2925 2926 2926 2925 2926 2927 2928 2929 2930 2931 2932 2935 2937 2938 2939 2940 2942 2943 2943 2944 2945 2945 2946 2947 2949 2949 2950 2951 2953 2955 2958 2960 2962 2964 2966 2968 2970 2973 2975 2977 2978 2979 2980 2981 2982 2983 2984 2985 2986 2988 2989 2990 2991 2993 2994 2995 2996 2997 2998 2999 3000 3001 3003 3003 3005 3006 3007 3008 3008 3009 3010
2916 2916 2916 2917 2917 2917 2915 2916 2917 2919 2919 2919 2918 2918 2918 2919 2920 2920 2920 2921 2921 2922 2922 2923 2924 2926 2929 2932 2932 2933 2933 2935 2936 2936 2937 2938 2938 2939 2942 2943 2944 2945 2947 2948 2951 2953 2955 2957 2959 2961 2963 2966 2968 2971 2973 2974 2975 2976 2977 2978 2979 2981 2982 2983 2984 2985 2987 2988 2989 2991 2992 2993 2994 2995 2996 2997 2998 3000 3001 3002 3003 3004 3005 3006 3007 3008
2912 2911 2911 2911 2911 2911 2910 2910 2911 2912 2913 2913 2913 2912 2912 2913 2913 2914 2915 2916 2917 2916 2916 2917 2918 2919 2921 2924 2925 2926 2927 2928 2929 2929 2930 2931 2932 2933 2936 2938 2939 2940 2942 2944 2946 2948 2950 2952 2954 2957 2959 2961 2963 2966 2968 2969 2971 2972 2973 2974 2976 2977 2978 2979 2981 2982 2983 2984 2986 2987 2989 2990 2991 2992 2993 2994 2996 2997 2998 2999 3000 3002 3003 3004 3005 3006
2908 2907 2906 2906 2906 2906 2905 2905 2905 2906 2906 2907 2907 2906 2906 2907 2908 2908 2908 2909 2911 2912 2913 2913 2913 2913 2914 2917 2918 2919 2920 2922 2923 2924 2924 2925 2926 2928 2931 2933 2935 2936 2938 2940 2942 2944 2946 2948 2949 2952 2954 2957 2959 2961 2963 2965 2967 2968 2969 2970 2972 2973 2975 2976 2977 2978 2980 2981 2983 2984 2986 2987 2988 2989 2990 2992 2993 2994 2995 2997 2998 2999 3000 3001 3003 3003
2904 2903 2903 2902 2901 2901 2900 2900 2900 2900 2901 2901 2901 2901 2901 2901 2901 2902 2901 2902 2903 2904 2905 2906 2906 2905 2906 2910 2912 2913 2914 2916 2918 2919 2919 2920 2921 2923 2925 2928 2930 2932 2933 2935 2938 2939 2941 2943 2945 2947 2950 2952 2954 2956 2959 2961 2963 2964 2965 2967 2968 2969 2971 2973 2974 2975 2976 2978 2979 2981 2982 2983 2985 2986 2987 2988 2990 2991 2993 2994 2995 2997 2998 2999 3000 3001
2899 2899 2898 2897 2897 2897 2896 2896 2895 2895 2896 2896 2896 2895 2896 2896 2896 2895 2896 2896 2897 2898 2899 2899 2898 2898 2900 2904 2906 2907 2908 2911 2914 2915 2915 2916 2917 2918 2920 2923 2925 2927 2928 2931 2933 2935 2936 2938 2940 2943 2945 2947 2949 2952 2954 2956 2958 2959 2961 2963 2964 2966 2967 2969 2970 2972 2973 2974 2976 2978 2979 2980 2982 2983 2984 2986 2987 2988 2990 2991 2993 2994 2995 2996 2998 2998
2893 2893 2892 2892 2892 2892 2892 2891 2891 2891 2891 2891 2891 2892 2892 2891 2891 2890 2889 2890 2892 2894 2895 2894 2893 2893 2896 2899 2900 2900 2903 2906 2908 2910 2911 2912 2913 2913 2914 2918 2920 2922 2923 2926 2928 2930 2931 2933 2935 2938 2940 2942 2944 2947 2949 2951 2953 2955 2957 2958 2960 2962 2963 2965 2967 2968 2969 2971 2973 2974 2976 2977 2978 2980 2981 2983 2984 2985 2987 2988 2990 2991 2993 2994 2995 2996
2888 2887 2887 2886 2886 2885 2885 2886 2886 2886 2885 2886 2887 2887 2888 2888 2887 2884 2883 2884 2888 2890 2890 2889 2889 2890 2892 2893 2893 2894 2898 2901 2903 2904 2906 2908 2908 2908 2909 2913 2916 2918 2918 2920 2923 2924 2926 2928 2930 2933 2935 2938 2940 2942 2944 2947 2949 2951 2953 2954 2956 2958 2960 2962 2963 2965 2966 2968 2969 2971 2972 2974 2975 2977 2978 2980 2981 2983 2984 2985 2987 2988 2990 2991 2992 2993
2883 2882 2881 2881 2880 2880 2880 2880 2880 2880 2880 2881 2881 2882 2882 2883 2882 2880 2878 2880 2883 2885 2884 2883 2885 2888 2889 2890 2890 2891 2893 2895 2896 2899 2902 2904 2903 2902 2903 2908 2911 2912 2913 2915 2918 2919 2921 2923 2925 2928 2931 2933 2935 2938 2940 2943 2945 2947 2948 2950 2952 2954 2956 2958 2959 2961 2963 2964 2966 2967 2969 2971 2972 2973 2975 2977 2978 2980 2981 2983 2984 2986 2987 2988 2990 2991
2878 2877 2876 2876 2875 2875 2874 2874 2874 2874 2875 2876 2876 2877 2877 2877 2876 2875 2875 2877 2878 2879 2878 2878 2880 2883 2886 2888 2888 2888 2888 2888 2891 2894 2898 2899 2898 2897 2900 2904 2906 2907 2908 2911 2913 2914 2916 2918 2921 2924 2926 2928 2931 2933 2935 2938 2940 2942 2944 2947 2949 2951 2953 2954 2956 2958 2959 2961 2962 2964 2965 2967 2969 2970 2972 2973 2975 2977 2978 2980 2981 2983 2984 2986 2987 2988
2871 2871 2870 2870 2870 2869 2869 2869 2868 2868 2869 2870 2871 2871 2871 2872 2871 2871 2872 2873 2873 2874 2874 2874 2876 2878 2880 2883 2884 2883 2882 2883 2886 2891 2894 2895 2893 2893 2896 2900 2902 2902 2904 2907 2909 2910 2911 2914 2917 2920 2922 2924 2927 2929 2931 2933 2935 2937 2940 2942 2944 2947 2949 2951 2953 2954 2956 2957 2958 2960 2962 2964 2965 2967 2969 2971 2972 2974 2975 2977 2979 2980 2982 2983 2984 2985
2865 2865 2864 2864 2864 2864 2864 2864 2863 2863 2864 2864 2865 2866 2866 2867 2867 2867 2868 2868 2868 2869 2870 2870 2872 2873 2874 2877 2878 2878 2877 2878 2882 2887 2890 2891 2890 2890 2893 2896 2898 2898 2900 2903 2905 2905 2907 2910 2913 2916 2918 2920 2922 2924 2927 2929 2931 2933 2935 2938 2940 2942 2944 2947 2949 2951 2952 2953 2955 2957 2959 2960 2962 2964 2966 2968 2969 2971 2973 2974 2976 2978 2979 2980 2982 2983
2858 2858 2858 2857 2858 2858 2858 2858 2858 2858 2859 2859 2859 2860 2861 2861 2862 2863 2863 2863 2864 2864 2865 2866 2867 2868 2869 2870 2872 2873 2874 2875 2877 2881 2885 2887 2886 2887 2889 2892 2893 2894 2896 2899 2901 2902 2903 2905 2908 2911 2914 2916 2918 2920 2923 2925 2927 2929 2931 2934 2936 2938 2941 2943 2945 2947 2948 2950 2952 2954 2955 2957 2959 2961 2963 2964 2966 2968 2970 2972 2973 2975 2976 2978 2979 2980
2852 2851 2851 2851 2851 2852 2852 2852 2853 2853 2853 2853 2854 2855 2856 2856 2857 2858 2858 2859 2860 2860 2860 2861 2862 2863 2865 2866 2866 2868 2870 2871 2872 2876 2881 2883 2883 2883 2885 2888 2889 2890 2892 2894 2897 2898 2899 2902 2904 2907 2909 2911 2913 2916 2918 2921 2923 2925 2928 2930 2933 2935 2937 2939 2941 2943 2944 2946 2948 2950 2952 2954 2956 2958 2960 2962 2963 2965 2967 2969 2970 2972 2973 2975 2976 2977
2846 2845 2845 2845 2845 2845 2845 2846 2846 2847 2847 2848 2848 2849 2850 2851 2852 2853 2854 2854 2855 2855 2856 2856 2857 2858 2860 2862 2862 2863 2865 2866 2868 2872 2878 2879 2879 2880 2882 2884 2885 2886 2888 2890 2892 2894 2896 2898 2900 2903 2905 2907 2909 2912 2914 2916 2919 2922 2924 2927 2929 2932 2934 2936 2938 2939 2941 2943 2945 2947 2948 2950 2953 2955 2957 2958 2960 2963 2964 2966 2968 2969 2970 2972 2973 2974
2841 2840 2840 2841 2841 2840 2840 2840 2841 2841 2841 2842 2843 2844 2845 2846 2847 2848 2849 2850 2850 2851 2852 2852 2853 2853 2855 2857 2858 2859 2860 2862 2865 2869 2873 2874 2875 2876 2878 2879 2881 2883 2885 2887 2889 2891 2893 2894 2896 2899 2901 2903 2905 2907 2910 2912 2915 2918 2921 2923 2926 2928 2930 2933 2934 2936 2938 2940 2942 2944 2946 2948 2950 2952 2954 2956 2958 2960 2962 2963 2965 2966 2968 2969 2970 2972
2836 2835 2835 2836 2836 2836 2835 2835 2835 2836 2837 2837 2838 2839 2840 2841 2842 2843 2844 2845 2846 2846 2847 2848 2848 2849 2850 2852 2853 2855 2857 2860 2863 2865 2867 2869 2871 2873 2874 2875 2877 2879 2882 2883 2885 2887 2889 2891 2893 2895 2897 2899 2901 2903 2906 2908 2912 2915 2917 2920 2922 2924 2927 2929 2931 2933 2935 2937 2939 2941 2943 2945 2947 2949 2951 2953 2955 2957 2958 2960 2962 2963 2965 2966 2968 2969
2832 2831 2831 2831 2831 2831 2831 2831 2831 2831 2832 2833 2833 2834 2835 2836 2837 2838 2839 2840 2841 2842 2843 2844 2844 2845 2846 2848 2849 2851 2854 2858 2859 2860 2862 2863 2866 2868 2869 2870 2873 2876 2878 2880 2882 2884 2886 2888 2889 2891 2893 2895 2897 2900 2903 2905 2908 2911 2913 2916 2918 2921 2923 2925 2928 2930 2932 2934 2936 2938 2940 2942 2944 2946 2948 2950 2952 2954 2956 2957 2959 2960 2962 2963 2965 2966
2829 2828 2827 2827 2827 2827 2826 2826 2826 2827 2828 2828 2829 2830 2831 2832 2832 2833 2834 2835 2836 2837 2839 2840 2840 2841 2842 2843 2845 2847 2849 2853 2856 2857 2858 2860 2862 2863 2864 2866 2868 2871 2874 2876 2879 2881 2883 2884 2885 2887 2889 2892 2894 2897 2900 2902 2904 2907 2910 2913 2915 2918 2919 2922 2924 2926 2929 2931 2933 2935 2937 2939 2941 2943 2945 2947 2949 2951 2953 2955 2956 2958 2959 2961 2962 2964
2825 2825 2824 2824 2823 2823 2823 2823 2823 2823 2823 2823 2824 2824 2826 2827 2828 2829 2830 2831 2832 2833 2834 2836 2836 2837 2838 2839 2841 2842 2844 2846 2848 2851 2854 2857 2858 2859 2859 2861 2864 2867 2870 2873 2876 2878 2879 2880 2882 2884 2886 2889 2891 2893 2896 2899 2901 2903 2906 2909 2911 2913 2915 2918 2920 2923 2925 2928 2929 2932 2934 2936 2938 2940 2942 2944 2946 2948 2951 2952 2954 2955 2957 2958 2960 2961
2822 2821 2821 2821 2820 2820 2820 2819 2819 2819 2819 2819 2819 2819 2820 2822 2823 2824 2825 2826 2828 2829 2830 2832 2832 2833 2833 2834 2836 2837 2838 2839 2841 2844 2849 2851 2853 2854 2855 2858 2860 2863 2866 2869 2872 2873 2875 2877 2879 2881 2883 2886 2888 2891 2893 2895 2898 2900 2903 2905 2907 2909 2912 2915 2917 2919 2922 2924 2926 2928 2931 2933 2935 2937 2939 2942 2944 2946 2948 2950 2951 2953 2954 2956 2957 2959
2819 2819 2818 2818 2818 2817 2817 2817 2816 2816 2816 2815 2815 2815 2816 2818 2819 2820 2821 2822 2823 2824 2826 2827 2828 2828 2828 2829 2831 2832 2833 2834 2836 2839 2843 2847 2849 2851 2852 2854 2857 2860 2863 2866 2868 2870 2872 2874 2876 2878 2880 2883 2885 2887 2890 2892 2894 2897 2899 2901 2904 2907 2910 2912 2914 2916 2918 2921 2923 2925 2928 2930 2932 2934 2937 2939 2941 2943 2945 2947 2948 2950 2952 2953 2955 2956
2817 2816 2816 2815 2815 2814 2814 2813 2813 2813 2812 2812 2812 2812 2813 2814 2815 2816 2817 2818 2819 2820 2822 2823 2823 2824 2824 2824 2826 2828 2829 2831 2833 2835 2839 2842 2845 2847 2849 2851 2854 2857 2860 2862 2864 2866 2869 2871 2873 2875 2877 2879 2882 2883 2885 2888 2891 2893 2896 2898 2901 2904 2906 2908 2910 2913 2915 2917 2919 2922 2924 2927 2929 2931 2934 2936 2938 2941 2943 2944 2946 2947 2949 2950 2952 2953
2814 2813 2812 2812 2811 2811 2810 2810 2809 2809 2809 2809 2808 2808 2809 2810 2811 2812 2813 2814 2815 2817 2818 2819 2820 2820 2820 2820 2822 2823 2825 2828 2830 2833 2835 2838 2841 2844 2846 2849 2852 2854 2857 2859 2861 2863 2866 2869 2870 2872 2874 2876 2878 2880 2882 2885 2887 2889 2891 2894 2896 2898 2900 2903 2906 2909 2912 2914 2917 2919 2921 2924 2926 2928 2931 2933 2936 2938 2940 2942 2943 2945 2946 2948 2949 2951
2811 2809 2808 2808 2807 2807 2806 2806 2806 2806 2806 2805 2805 2805 2806 2807 2808 2808 2809 2810 2812 2813 2814 2815 2816 2817 2817 2817 2818 2820 2822 2825 2828 2830 2833 2836 2838 2841 2844 2847 2849 2852 2854 2856 2858 2860 2863 2865 2867 2869 2871 2873 2875 2877 2879 2881 2884 2886 2888 2890 2893 2896 2898 2902 2905 2907 2909 2911 2913 2916 2918 2921 2923 2926 2928 2931 2933 2935 2937 2939 2941 2943 2944 2945 2947 2948
2806 2805 2804 2804 2804 2803 2803 2803 2803 2803 2802 2802 2802 2803 2803 2804 2804 2805 2806 2807 2808 2809 2810 2811 2813 2813 2813 2813 2815 2818 2820 2822 2825 2828 2830 2833 2836 2839 2842 2844 2847 2849 2851 2853 2855 2858 2860 2862 2864 2866 2868 2870 2872 2873 2876 2878 2881 2883 2885 2887 2890 2893 2895 2898 2901 2903 2906 2908 2911 2913 2916 2918 2921 2923 2926 2928 2930 2933 2935 2937 2939 2940 2942 2943 2944 2946
2803 2802 2801 2801 2800 2800 2799 2799 2799 2799 2799 2799 2799 2799 2800 2801 2801 2802 2803 2803 2804 2805 2806 2807 2808 2809 2809 2811 2813 2814 2817 2819 2822 2825 2827 2830 2833 2836 2839 2842 2844 2846 2848 2851 2853 2855 2858 2860 2862 2863 2865 2867 2868 2870 2873 2875 2878 2880 2882 2884 2886 2889 2892 2894 2897 2900 2902 2905 2908 2911 2913 2916 2918 2921 2923 2925 2928 2930 2932 2934 2936 2938 2939 2940 2942 2944
2799 2798 2798 2797 2797 2796 2796 2796 2796 2796 2796 2796 2796 2796 2797 2798 2798 2799 2799 2800 2801 2802 2803 2804 2805 2805 2806 2808 2809 2811 2813 2816 2819 2822 2824 2827 2829 2833 2837 2840 2842 2844 2846 2848 2851 2853 2855 2857 2859 2861 2862 2863 2865 2867 2870 2872 2875 2877 2879 2881 2883 2886 2888 2891 2894 2897 2899 2902 2905 2908 2911 2913 2915 2918 2920 2923 2925 2928 2930 2932 2933 2935 2936 2938 2939 2941
2796 2795 2794 2794 2793 2793 2793 2792 2793 2793 2792 2793 2793 2793 2793 2794 2795 2796 2796 2797 2798 2799 2800 2801 2802 2803 2803 2805 2806 2808 2811 2813 2816 2818 2821 2823 2826 2829 2833 2836 2838 2841 2843 2845 2848 2849 2852 2854 2856 2858 2859 2861 2862 2864 2867 2869 2871 2874 2876 2878 2880 2883 2886 2889 2891 2894 2896 2899 2902 2905 2908 2911 2913 2916 2918 2921 2923 2925 2927 2929 2931 2933 2934 2935 2937 2939
2793 2792 2792 2791 2791 2790 2789 2789 2789 2789 2789 2789 2789 2790 2790 2791 2792 2793 2793 2794 2795 2796 2797 2798 2799 2800 2801 2802 2803 2806 2808 2811 2813 2815 2817 2819 2822 2826 2829 2832 2835 2837 2839 2842 2844 2846 2848 2851 2853 2855 2856 2858 2859 2861 2863 2865 2868 2870 2873 2875 2877 2880 2883 2886 2888 2891 2893 2896 2900 2903 2905 2908 2911 2914 2916 2918 2921 2923 2925 2927 2928 2930 2932 2933 2935 2937
2790 2789 2789 2788 2788 2787 2786 2786 2786 2786 2786 2786 2786 2787 2788 2788 2789 2790 2791 2792 2793 2793 2794 2795 2796 2797 2798 2799 2801 2803 2806 2808 2810 2812 2813 2816 2819 2823 2826 2829 2831 2834 2836 2839 2841 2843 2845 2848 2850 2852 2853 2855 2856 2858 2860 2862 2864 2867 2869 2871 2874 2878 2880 2883 2885 2888 2891 2894 2897 2900 2903 2905 2908 2910 2913 2915 2918 2920 2923 2924 2926 2928 2929 2931 2933 2935